"Pseudo-MPEC" for Hw9c1QS

Created 2019 Sep 11 23:07:11 UT using Find_Orb

Click here for an explanation of pseudo-MPECs

 
 Astrometry: 
     Hw9c1QS !C2019 08 30t/])D]DO?QB0.Wg!]xAstrometry-%[G^2H,,HWT/V7.+V9(@G9-W84
     Hw9c1QS !C2019 08 30Iv+0U@W:R4Vtb#jh4DQj59PkR2eKL#!13VQredacted;EJ)3^-BaW84
     Hw9c1QS !C2019 08 30Qduv@eUJ1.6vba#?4RL@Qw#dWaK#dRSZLjvOx2:M)Yiqe;7ql;5JW84
     Hw9c1QS !C2019 08 30VaJ3heKIkC9gMkSS_Z6rI-]yTenD5J+97#'VN*GqwhxBAQ'!Ay$)W84
     Hw9c1QS !C2019 08 307w(EbPiQTNjlQKHYVp+-^)PZ515V1n_EAGaq78L?(q-@*c65KO?!W84
     Hw9c1QS !C2019 08 30/T2xdwl$ykEGRq8jwWLo(Z5gwHUuI)6pn3=L3.q4aBLQ?]X4@8$-W84
     Hw9c1QS !C2019 08 305*c^9_a1Bw'j1DxS42:08EPO#IoBV+tC?3*PU\2FGVbEcPWW;IWkW84
     Hw9c1QS !C2019 08 30xZcHP,Xclick52RX,?\uRHuyY7DBhUT)$1NWk7Yuw70dDBpc_,87W84
     Hw9c1QS !C2019 08 30U3k4K50mEdP#uX4AImG_'e)I5FbA_TPLEw4)DYmt7CRK?4#$oha?W84
     Hw9c1QS !C2019 08 30#-[xF5Os4GJIPo\xCMuvy9Rr'UvwC7pDQxEA'/)B2YkI15v,1uycW84
     Hw9c1QS !C2019 08 30G[CX;Z(oYYmXTOvXrPkdy#yPcd%=MMxEJ0:+8/KVvZ_Lx=xNcb(@W84
     Hw9c1QS !C2019 08 30;X)%]F,0x+[.E@F.8L?h,$n*vlX_U:%prbP0c\@ahUJgOpPgBo/NW84
     Hw9c1QS !C2019 08 30M#2IpEb%_AOX*%BGb.^rXK!)UC%$R.RV@Uer+KmZ]w:%xVA-:m??W84
     Hw9c1QS !C2019 08 30oHu8(yD6+0;Zv3e!8X:qVp8=0`7OU_JGA$kWcFh$klsLl1^`(nVtW84
     Hw9c1QS !C2019 08 302fZIoib@j^x\oa\7fbU1.N]T9A:A6pp6*%,tA%$u?\2+yB=-JTdvW84
     Hw9c1QS !C2019 08 30V_f'Uhq`G#4h]RHa-w'C/fB+]*V8th0YT7ivc)C@qe$I3?0d.tAPW84
     Hw9c1QS !C2019 08 30Y$45phc^yCljfBSo?tf+xirqT]rb19ljq[ZhICH@M9,oFU5@utr?W84
     Hw9c1QS !C2019 08 30lDs)5:/'_?Hf)h]V[i%(ynthO9[sfi!Yx]Xy7[eSd.6tiZyKYnNSW84
     Hw9c1QS !C2019 08 30\WGqP36?5IqrAOqX07eNEHh6H:opBH,yIXO]nHrq?D8HoJ3`5a+kW84
     Hw9c1QS !C2019 08 30dN'fBv\dyhcHFl+nnW?gU1iK5V1Kqp\ExHAN^+MLHPMn5ubGo)r'W84
     Hw9c1QS !C2019 08 30O9AGd7]c5+*iiEo7uv+erG2A*hGVp=_c^`'vCjeNN]q=)gTXhereW84
     Hw9c1QS !C2019 08 30=9Ci:/0xxXTHO:e4Tldx6)dgx'p?5N\(LLB[6t3nN5DB2wFvO\YUW84
     Hw9c1QS !C2019 08 30F-[pLpEcRKiN,%H@NwULfors0^JV4ymmUGnb)diScR,4uZu)oNZ$W84
     Hw9c1QS !C2019 08 30S48XELWexplanationltf9B)B,rvJ$\8SgSE\\%a63OOktU@)iZKW84
     Hw9c1QS !C2019 08 30rV2D,6hNU+b*RDd9[widB=?D8#3rN_(:]5P_WYnbOWG'U1u6bT*[W84
     Hw9c1QS !C2019 08 30tNMQyYU(t9=$RN]G7fX^n3IiJ1-$;BRCp]9o=oQkbHo:w-;hssLAW84
     Hw9c1QS !C2019 08 30-O01`qiU:vRdYl3v;eA#g7qdx3Rq,X9m-#$GunijU-#!t9As'2DkW84
     Hw9c1QS !C2019 08 300Wx\VOe,je[8h$\w1_x,9nE5AGer2wJHowZD)$depRCR)U8';+O:W84
     Hw9c1QS !C2019 08 30@pAB[mT2=[wSv6t`UklyCuT5VIA+c;!^]6+k#Hm^v7u6l@(EcWySW84
     Hw9c1QS !C2019 08 303N@i?$M/022fq2@KbWx$@ZI^7#7J%ehy.a$[KhT]Tt.A:Z)LZ\PUW84
     Hw9c1QS !C2019 08 30S9.0*X6I!5Wbmm35!KjuYei9H;N*E)!Sv/cAS)BC`+6-r.CJ]#5MW84
     Hw9c1QS !C2019 08 30p]BDBB'wu#`8]'lfJ5M/%4[+CY/Z6Da,\*+$2!U6;msB9`F(gU.UW84
     Hw9c1QS !C2019 08 307mxJ#3`!tl]$Qa*d9TW-'TFAOb07G^pKa)1c$#F\UbAsXZMjg.DhW84
     Hw9c1QS !C2019 08 30PDq8T.VUlM.07K4oKq$3lQFLX6nfZ\pXS/g;?v-F#oWn@k=luY.LW84
     Hw9c1QS !C2019 08 30%5*;)KO?Abr*O3J%tp\j'Q0MHViD6RJoA/eJ4:iUV;`_(deVZGFbW84
     Hw9c1QS !C2019 08 30R15UgXyWd#M+28/,RV=mpuZARniR0u=yP_2)v-C\s5ktBD*_k;A4W84

Station data:
(W84) Cerro Tololo-DECam  (S30.169597 W70.806420)  Chile. 4.0-m f/2.87
   reflector + CCD.

Orbital elements:  Hw9c1QS
   Perihelion 2019 Jul 31.939671 +/- 42.6 TT = 22:33:07 (JD 2458696.439671)
Epoch 2019 Aug 30.0 TT = JDT 2458725.5   Earth MOID: 0.2215   Ju: 0.9686
M   6.00899830 +/- 22               (J2000 ecliptic)          AutoNEOCP
n   0.20677668 +/- 0.156            Peri.  330.68993 +/- 46
a   2.83227232 +/- 1.43             Node   342.26421 +/- 0.7
e   0.5718479 +/- 0.155             Incl.   12.47777 +/- 4.9
P   4.77                   H 25.0   G  0.15   U 11.5  SR
q 1.21264323 +/- 0.168    Q 4.45190141 +/- 1.62
From 36 observations 2019 Aug. 30 (2.4 hr); mean residual 0".37
Residuals in arcseconds: 
190830 W84  .03+  .20+    190830 W84  .15+  .61-    190830 W84  .22-  .13+    
190830 W84  .11+  .10+    190830 W84  .05+  .38-    190830 W84  .03-  .31-    
190830 W84  .09-  .26+    190830 W84  .22-  .44+    190830 W84  .09-  .44+    
190830 W84  .02-  .10+    190830 W84  .16-  .33+    190830 W84  .10+  .37+    
190830 W84  .15+  .44-    190830 W84  .06+  .31-    190830 W84  .17+  .74-    
190830 W84  .22-  .86+    190830 W84  .03-  .09+    190830 W84  .02+  .18+    
190830 W84  .31-  .69+    190830 W84  .02+  .08+    190830 W84  .19+  .72-    
190830 W84  .29+  .72-    190830 W84  .15-  .38+    190830 W84  .22+  .57-    
190830 W84  .35+  .59-    190830 W84  .04+  .93-    190830 W84  .08-  .66+    
190830 W84  .19+  .60-    190830 W84  .08-  .32+    190830 W84  .08+  .20+    
190830 W84  .19-  .10+    190830 W84  .11+  .49-    190830 W84  .07+  .37-    
190830 W84  .14-  .53+    190830 W84  .15-  .41+    190830 W84  .23-  .92+    

Ephemerides (geocentric):
Date (UTC) HH   RA              Dec         delta   r     elong  mag " sig PA
---- -- -- --  -------------   -----------  ------ ------ -----  --- ---- ---
2019 09 11 23  23 23 57.288   +03 49 03.55  .30399 1.3081 171.6 23.5 885'  60
2019 09 12 00  23 23 55.385   +03 50 37.98  .30418 1.3083 171.6 23.5 903'  59
2019 09 12 01  23 23 53.483   +03 52 12.27  .30438 1.3085 171.6 23.5 923'  58
2019 09 12 02  23 23 51.584   +03 53 46.41  .30457 1.3087 171.6 23.5 945'  56
2019 09 12 03  23 23 49.687   +03 55 20.41  .30476 1.3088 171.6 23.5 968'  55
2019 09 12 04  23 23 47.791   +03 56 54.26  .30496 1.3090 171.6 23.5 993'  53
2019 09 12 05  23 23 45.898   +03 58 27.96  .30515 1.3092 171.6 23.5  17d  51
2019 09 12 06  23 23 44.007   +04 00 01.52  .30534 1.3094 171.5 23.5  17d  50
2019 09 12 07  23 23 42.118   +04 01 34.93  .30554 1.3096 171.5 23.5  18d  48
2019 09 12 08  23 23 40.231   +04 03 08.19  .30573 1.3097 171.5 23.5  18d  46
2019 09 12 09  23 23 38.346   +04 04 41.31  .30593 1.3099 171.5 23.6  19d  44
2019 09 12 10  23 23 36.463   +04 06 14.29  .30612 1.3101 171.5 23.6  20d  43
2019 09 12 11  23 23 34.583   +04 07 47.12  .30632 1.3103 171.5 23.6  20d  41
2019 09 12 12  23 23 32.704   +04 09 19.80  .30651 1.3105 171.5 23.6  21d  40
2019 09 12 13  23 23 30.827   +04 10 52.34  .30671 1.3106 171.5 23.6  21d  38
2019 09 12 14  23 23 28.953   +04 12 24.73  .30690 1.3108 171.5 23.6  22d  37
2019 09 12 15  23 23 27.081   +04 13 56.98  .30710 1.3110 171.5 23.6  22d  36
2019 09 12 16  23 23 25.211   +04 15 29.08  .30730 1.3112 171.5 23.6  23d  35
2019 09 12 17  23 23 23.343   +04 17 01.04  .30749 1.3114 171.5 23.6  23d  34
2019 09 12 18  23 23 21.477   +04 18 32.85  .30769 1.3115 171.5 23.6  24d  33
2019 09 12 19  23 23 19.614   +04 20 04.52  .30789 1.3117 171.5 23.6  24d  32
2019 09 12 20  23 23 17.753   +04 21 36.04  .30809 1.3119 171.5 23.6  25d  31
2019 09 12 21  23 23 15.893   +04 23 07.42  .30828 1.3121 171.5 23.6  25d  30
2019 09 12 22  23 23 14.036   +04 24 38.65  .30848 1.3123 171.5 23.6  25d  30
2019 09 12 23  23 23 12.182   +04 26 09.74  .30868 1.3124 171.4 23.6  25d  29
2019 09 13 00  23 23 10.329   +04 27 40.69  .30888 1.3126 171.4 23.6  26d  29
2019 09 13 01  23 23 08.479   +04 29 11.49  .30908 1.3128 171.4 23.6  26d  28
2019 09 13 02  23 23 06.631   +04 30 42.14  .30928 1.3130 171.4 23.6  26d  28
2019 09 13 03  23 23 04.785   +04 32 12.65  .30948 1.3132 171.4 23.6  26d  27
2019 09 13 04  23 23 02.941   +04 33 43.02  .30968 1.3134 171.4 23.6  27d  27
2019 09 13 05  23 23 01.099   +04 35 13.24  .30988 1.3135 171.4 23.6  27d  26
2019 09 13 06  23 22 59.260   +04 36 43.32  .31008 1.3137 171.4 23.6  27d  26
2019 09 13 07  23 22 57.423   +04 38 13.25  .31028 1.3139 171.4 23.6  27d  26
2019 09 13 08  23 22 55.589   +04 39 43.04  .31048 1.3141 171.4 23.6  27d  25
2019 09 13 09  23 22 53.756   +04 41 12.69  .31068 1.3143 171.4 23.6  27d  25
2019 09 13 10  23 22 51.926   +04 42 42.19  .31088 1.3144 171.4 23.6  27d  25
2019 09 13 11  23 22 50.098   +04 44 11.55  .31108 1.3146 171.3 23.6  28d  24
2019 09 13 12  23 22 48.273   +04 45 40.76  .31129 1.3148 171.3 23.6  28d  24
2019 09 13 13  23 22 46.450   +04 47 09.83  .31149 1.3150 171.3 23.6  28d  24
2019 09 13 14  23 22 44.629   +04 48 38.76  .31169 1.3152 171.3 23.6  28d  23
2019 09 13 15  23 22 42.810   +04 50 07.54  .31189 1.3154 171.3 23.6  28d  23
2019 09 13 16  23 22 40.994   +04 51 36.18  .31210 1.3155 171.3 23.6  28d  23
2019 09 13 17  23 22 39.180   +04 53 04.68  .31230 1.3157 171.3 23.6  28d  23
2019 09 13 18  23 22 37.368   +04 54 33.04  .31250 1.3159 171.3 23.6  28d  22
2019 09 13 19  23 22 35.559   +04 56 01.25  .31271 1.3161 171.3 23.6  28d  22
2019 09 13 20  23 22 33.752   +04 57 29.32  .31291 1.3163 171.2 23.6  28d  22
2019 09 13 21  23 22 31.947   +04 58 57.24  .31312 1.3165 171.2 23.6  28d  22
2019 09 13 22  23 22 30.145   +05 00 25.02  .31332 1.3167 171.2 23.6  28d  22